FDX2 KMEM-EGSS

Flight info

Callsign FDX2
Flight time N/A
Altitude 31000
Route GOETZ7 DIYAB DCT HITMN Q34 RBV Q430 ACK DCT WHALE N93B SUPRY/M084F330 DCT 46N050W 49N040W 50N030W 50N020W DCT BEDRA DCT NASBA DCT GAPLI/N0485F330 DCT SIDDI DCT DAWLY DCT ELRIP DCT OTMET N17 TELTU
Aircraft MD11/H-SDE1E2E3FGHIJ2J3J4J5M1RWXY/LB1D1

Departure

Time N/A
Airport Memphis International Airport (KMEM)

Arrival

Time 2026-05-05 00:18
Airport London Stansted Airport (EGSS)
Time Latitude Longitude Altitude Speed Heading
2026-05-04 17:48 39.95362 -74.98325 30996 ft 496 kts 49°
2026-05-04 17:48 39.97352 -74.94649 30991 ft 497 kts 51°
2026-05-04 17:48 40.01201 -74.87149 30990 ft 498 kts 52°
2026-05-04 17:49 40.05001 -74.79601 30989 ft 498 kts 52°
2026-05-04 17:49 40.08812 -74.72052 30972 ft 498 kts 52°
2026-05-04 17:50 40.12628 -74.64503 30976 ft 498 kts 52°
2026-05-04 17:50 40.16441 -74.56952 30971 ft 498 kts 52°
2026-05-04 17:51 40.20176 -74.49323 30968 ft 501 kts 57°
2026-05-04 17:51 40.22879 -74.40848 30980 ft 508 kts 67°
2026-05-04 17:52 40.25037 -74.32059 30987 ft 508 kts 68°
2026-05-04 17:52 40.27224 -74.23260 30993 ft 508 kts 67°
2026-05-04 17:53 40.29488 -74.14489 30987 ft 508 kts 67°
2026-05-04 17:53 40.31758 -74.05783 30977 ft 508 kts 67°
2026-05-04 17:54 40.34034 -73.97027 30977 ft 508 kts 67°
2026-05-04 17:54 40.36293 -73.88253 30978 ft 507 kts 68°
2026-05-04 17:55 40.38550 -73.79494 30978 ft 507 kts 67°
2026-05-04 17:55 40.40430 -73.72205 31002 ft 507 kts 67°
2026-05-04 17:56 40.42692 -73.63416 30994 ft 508 kts 68°
2026-05-04 17:56 40.44943 -73.54627 30976 ft 508 kts 68°
2026-05-04 17:57 40.47177 -73.45820 30980 ft 508 kts 68°
2026-05-04 17:57 40.49408 -73.37014 30993 ft 508 kts 68°
2026-05-04 17:58 40.51639 -73.28201 30979 ft 508 kts 68°
2026-05-04 17:58 40.53847 -73.19447 30993 ft 507 kts 68°
2026-05-04 17:59 40.56063 -73.10634 30992 ft 508 kts 68°
2026-05-04 18:00 40.59380 -72.97377 30986 ft 508 kts 68°
2026-05-04 18:00 40.61565 -72.88606 31003 ft 508 kts 68°
2026-05-04 18:01 40.63772 -72.79710 31008 ft 508 kts 68°
2026-05-04 18:01 40.65944 -72.70923 31001 ft 508 kts 68°
2026-05-04 18:02 40.69205 -72.57642 31015 ft 509 kts 69°
2026-05-04 18:02 40.71349 -72.48752 31007 ft 509 kts 69°
2026-05-04 18:03 40.73499 -72.39869 31007 ft 509 kts 69°
2026-05-04 18:03 40.75655 -72.30982 31004 ft 508 kts 69°
2026-05-04 18:04 40.77809 -72.22103 31006 ft 509 kts 69°
2026-05-04 18:05 40.81242 -72.08827 30994 ft 509 kts 67°
2026-05-04 18:05 40.83581 -72.00015 30991 ft 508 kts 67°
2026-05-04 18:06 40.87059 -71.86806 30986 ft 510 kts 68°
2026-05-04 18:06 40.89380 -71.77930 30985 ft 511 kts 68°
2026-05-04 18:07 40.91693 -71.69043 30983 ft 511 kts 68°
2026-05-04 18:07 40.94001 -71.60156 30980 ft 510 kts 68°
2026-05-04 18:08 40.96321 -71.51283 30980 ft 512 kts 68°
2026-05-04 18:08 40.98661 -71.42371 30978 ft 513 kts 68°
2026-05-04 18:09 41.02958 -71.24334 30981 ft 515 kts 71°
2026-05-04 18:10 41.04856 -71.15257 30992 ft 515 kts 71°
2026-05-04 18:10 41.06773 -71.06131 30985 ft 514 kts 71°
2026-05-04 18:11 41.08696 -70.97019 30991 ft 514 kts 71°
2026-05-04 18:11 41.10625 -70.87896 30988 ft 514 kts 71°
2026-05-04 18:12 41.12549 -70.78736 30976 ft 518 kts 72°
2026-05-04 18:12 41.14471 -70.69511 30966 ft 518 kts 72°
2026-05-04 18:13 41.16386 -70.60299 30965 ft 518 kts 72°
2026-05-04 18:14 41.19248 -70.46478 30963 ft 522 kts 72°
2026-05-04 18:14 41.21163 -70.37176 30962 ft 522 kts 73°
2026-05-04 18:15 41.24969 -70.18561 30978 ft 522 kts 73°
2026-05-04 18:16 41.26870 -70.09201 30996 ft 526 kts 73°
2026-05-04 18:16 41.29246 -70.00053 30980 ft 522 kts 65°
2026-05-04 18:17 41.33561 -69.86775 30979 ft 521 kts 64°
2026-05-04 18:18 41.37850 -69.73458 30981 ft 527 kts 65°
2026-05-04 18:18 41.40684 -69.64474 30993 ft 526 kts 65°
2026-05-04 18:19 41.44904 -69.51033 30980 ft 524 kts 65°
2026-05-04 18:19 41.47726 -69.42022 30967 ft 529 kts 65°
2026-05-04 18:20 41.50551 -69.32966 30979 ft 528 kts 65°
2026-05-04 18:20 41.53364 -69.23919 30983 ft 527 kts 65°
2026-05-04 18:21 41.56161 -69.14891 30976 ft 527 kts 65°
2026-05-04 18:21 41.58969 -69.05803 30974 ft 530 kts 66°
2026-05-04 18:22 41.61744 -68.96677 30982 ft 530 kts 66°
2026-05-04 18:22 41.64515 -68.87561 30974 ft 530 kts 66°
2026-05-04 18:23 41.67302 -68.78427 30974 ft 531 kts 66°
2026-05-04 18:23 41.70096 -68.69262 30980 ft 532 kts 66°
2026-05-04 18:24 41.72860 -68.60159 30975 ft 532 kts 66°
2026-05-04 18:24 41.75656 -68.50918 30967 ft 532 kts 66°
2026-05-04 18:25 41.78435 -68.41699 30980 ft 535 kts 66°
2026-05-04 18:25 41.81189 -68.32527 30981 ft 534 kts 66°
2026-05-04 18:26 41.83953 -68.23291 30970 ft 534 kts 66°
2026-05-04 18:26 41.86713 -68.14040 30968 ft 536 kts 67°
2026-05-04 18:27 41.89479 -68.04732 30982 ft 537 kts 67°
2026-05-04 18:27 41.92212 -67.95419 30961 ft 536 kts 67°
2026-05-04 18:28 41.94932 -67.86095 30967 ft 536 kts 67°
2026-05-04 18:28 41.97651 -67.76814 30959 ft 536 kts 67°
2026-05-04 18:29 42.00384 -67.67488 30985 ft 536 kts 67°
2026-05-04 18:29 42.03107 -67.58166 30962 ft 535 kts 67°
2026-05-04 18:30 42.07178 -67.44157 30953 ft 539 kts 68°
2026-05-04 18:31 42.09897 -67.34755 30953 ft 538 kts 68°
2026-05-04 18:31 42.12605 -67.25356 30968 ft 538 kts 68°
2026-05-04 18:32 42.15306 -67.15949 30955 ft 540 kts 68°
2026-05-04 18:32 42.18010 -67.06493 30962 ft 541 kts 68°
2026-05-04 18:33 42.20727 -66.97033 30948 ft 541 kts 67°
2026-05-04 18:33 42.23515 -66.87614 30947 ft 541 kts 67°
2026-05-04 18:34 42.26344 -66.78188 30945 ft 543 kts 67°
2026-05-04 18:34 42.29156 -66.68796 30960 ft 543 kts 67°
2026-05-04 18:35 42.31971 -66.59339 30937 ft 543 kts 67°
2026-05-04 18:35 42.34783 -66.49852 30946 ft 546 kts 67°
2026-05-04 18:36 42.37602 -66.40306 30940 ft 546 kts 67°
2026-05-04 18:36 42.40411 -66.30754 30939 ft 546 kts 67°
2026-05-04 18:37 42.43212 -66.21199 30940 ft 547 kts 68°
2026-05-04 18:37 42.46024 -66.11570 30952 ft 550 kts 68°
2026-05-04 18:38 42.48821 -66.01955 30942 ft 547 kts 68°
2026-05-04 18:38 42.51587 -65.92348 30936 ft 548 kts 68°
2026-05-04 18:39 42.54332 -65.82717 30950 ft 548 kts 68°
2026-05-04 18:39 42.57093 -65.73075 30941 ft 550 kts 68°
2026-05-04 18:40 42.59850 -65.63454 30937 ft 551 kts 68°
2026-05-04 18:40 42.62618 -65.53764 30941 ft 551 kts 68°
2026-05-04 18:41 42.65377 -65.44063 30935 ft 551 kts 68°
2026-05-04 18:41 42.68129 -65.34347 30938 ft 551 kts 68°
2026-05-04 18:42 42.70870 -65.24631 30924 ft 551 kts 68°
2026-05-04 18:42 42.73616 -65.14860 30931 ft 554 kts 69°
2026-05-04 18:43 42.75896 -65.06718 30928 ft 554 kts 69°
2026-05-04 18:43 42.78620 -64.96954 30934 ft 554 kts 69°
2026-05-04 18:44 42.81331 -64.87141 30928 ft 554 kts 69°
2026-05-04 18:44 42.84015 -64.77309 30930 ft 554 kts 69°
2026-05-04 18:45 42.86714 -64.67472 30926 ft 556 kts 69°
2026-05-04 18:45 42.89434 -64.57570 30929 ft 557 kts 69°
2026-05-04 18:46 42.92144 -64.47669 30925 ft 557 kts 69°
2026-05-04 18:46 42.94844 -64.37762 30925 ft 557 kts 69°
2026-05-04 18:47 42.97535 -64.27840 30921 ft 557 kts 69°
2026-05-04 18:47 43.00218 -64.17911 30909 ft 557 kts 69°
2026-05-04 18:48 43.02902 -64.07939 30921 ft 562 kts 69°
2026-05-04 18:48 43.05589 -63.97910 30919 ft 561 kts 69°
2026-05-04 18:49 43.08267 -63.87874 30919 ft 561 kts 70°
2026-05-04 18:49 43.10909 -63.77828 30919 ft 560 kts 70°
2026-05-04 18:50 43.13535 -63.67785 30917 ft 561 kts 70°
2026-05-04 18:50 43.16173 -63.57747 30916 ft 560 kts 70°
2026-05-04 18:51 43.18797 -63.47756 30944 ft 560 kts 70°
2026-05-04 18:51 43.21439 -63.37654 30912 ft 558 kts 70°
2026-05-04 18:52 43.24047 -63.27633 30914 ft 558 kts 70°
2026-05-04 18:52 43.26629 -63.17668 30911 ft 558 kts 70°
2026-05-04 18:53 43.29224 -63.07613 30923 ft 560 kts 70°
2026-05-04 18:53 43.31825 -62.97491 30906 ft 561 kts 70°
2026-05-04 18:54 43.34411 -62.87384 30908 ft 561 kts 70°
2026-05-04 18:54 43.36985 -62.77268 30900 ft 561 kts 70°
2026-05-04 18:55 43.39518 -62.67127 30904 ft 561 kts 70°
2026-05-04 18:55 43.43334 -62.51896 30893 ft 564 kts 70°
2026-05-04 18:56 43.45907 -62.41647 30902 ft 567 kts 70°
2026-05-04 18:56 43.48472 -62.31385 30902 ft 567 kts 70°
2026-05-04 18:57 43.51022 -62.21132 30899 ft 564 kts 70°
2026-05-04 18:57 43.53553 -62.10908 30892 ft 564 kts 70°
2026-05-04 18:58 43.56078 -62.00665 30872 ft 565 kts 70°
2026-05-04 18:58 43.58601 -61.90385 30895 ft 571 kts 71°
2026-05-04 18:59 43.61136 -61.80007 30885 ft 569 kts 70°
2026-05-04 18:59 43.63646 -61.69674 30884 ft 568 kts 71°
2026-05-04 19:00 43.66120 -61.59299 30880 ft 569 kts 71°
2026-05-04 19:00 43.68577 -61.48992 30899 ft 569 kts 71°
2026-05-04 19:01 43.71059 -61.38626 30876 ft 569 kts 71°
2026-05-04 19:01 43.73550 -61.28200 30870 ft 571 kts 71°
2026-05-04 19:02 43.76029 -61.17776 30870 ft 571 kts 71°
2026-05-04 19:02 43.78496 -61.07344 30889 ft 571 kts 71°
2026-05-04 19:03 43.80947 -60.96931 30857 ft 567 kts 71°
2026-05-04 19:03 43.83380 -60.86546 30853 ft 568 kts 71°
2026-05-04 19:04 43.85824 -60.76070 30851 ft 574 kts 71°
2026-05-04 19:04 43.88261 -60.65568 30861 ft 572 kts 71°
2026-05-04 19:05 43.90665 -60.55079 30841 ft 569 kts 71°
2026-05-04 19:05 43.93033 -60.44612 30835 ft 569 kts 71°
2026-05-04 19:06 43.95419 -60.34126 30841 ft 569 kts 71°
2026-05-04 19:06 43.97812 -60.23621 30860 ft 574 kts 71°
2026-05-04 19:07 44.00207 -60.13060 30842 ft 572 kts 71°
2026-05-04 19:07 44.02581 -60.02534 30842 ft 571 kts 71°
2026-05-04 19:08 44.04948 -59.91985 30843 ft 572 kts 71°
2026-05-04 19:08 44.07304 -59.81433 30848 ft 571 kts 71°
2026-05-04 19:09 44.09625 -59.70981 30830 ft 568 kts 71°
2026-05-04 19:09 44.11954 -59.60451 30834 ft 571 kts 72°
2026-05-04 19:10 44.14276 -59.49890 30826 ft 570 kts 72°
2026-05-04 19:10 44.16554 -59.39303 30839 ft 570 kts 72°
2026-05-04 19:11 44.18821 -59.28770 30828 ft 566 kts 72°
2026-05-04 19:11 44.21093 -59.18271 30829 ft 566 kts 72°
2026-05-04 19:12 44.24501 -59.02464 30830 ft 569 kts 72°
2026-05-04 19:13 44.26762 -58.91902 30824 ft 566 kts 72°
2026-05-04 19:13 44.28991 -58.81427 30824 ft 565 kts 72°
2026-05-04 19:14 44.31220 -58.70908 30826 ft 566 kts 72°
2026-05-04 19:14 44.33440 -58.60372 30814 ft 565 kts 72°
2026-05-04 19:15 44.35641 -58.49878 30814 ft 569 kts 73°
2026-05-04 19:15 44.37856 -58.39253 30817 ft 570 kts 73°
2026-05-04 19:16 44.40027 -58.28606 30816 ft 569 kts 73°
2026-05-04 19:16 44.42199 -58.17950 30821 ft 569 kts 73°
2026-05-04 19:17 44.44376 -58.07321 30822 ft 567 kts 73°
2026-05-04 19:17 44.46543 -57.96727 30811 ft 566 kts 73°
2026-05-04 19:18 44.48697 -57.86130 30814 ft 566 kts 73°
2026-05-04 19:18 44.50843 -57.75512 30809 ft 566 kts 73°
2026-05-04 19:19 44.52976 -57.64902 30798 ft 565 kts 74°
2026-05-04 19:19 44.55093 -57.54312 30819 ft 564 kts 74°
2026-05-04 19:20 44.57200 -57.43718 30800 ft 564 kts 74°
2026-05-04 19:20 44.59300 -57.33100 30809 ft 567 kts 74°
2026-05-04 19:21 44.61389 -57.22410 30815 ft 567 kts 75°
2026-05-04 19:21 44.63429 -57.11775 30804 ft 563 kts 75°
2026-05-04 19:22 44.65482 -57.01143 30923 ft 565 kts 75°
2026-05-04 19:22 44.66512 -56.95819 31089 ft 565 kts 75°
2026-05-04 19:22 44.67544 -56.90484 31252 ft 566 kts 75°
2026-05-04 19:22 44.68560 -56.85222 31440 ft 565 kts 75°
2026-05-04 19:23 44.69598 -56.79826 31625 ft 564 kts 75°
2026-05-04 19:23 44.70606 -56.74569 31743 ft 566 kts 75°
2026-05-04 19:23 44.71630 -56.69213 31860 ft 567 kts 75°
2026-05-04 19:23 44.72650 -56.63864 32006 ft 568 kts 75°
2026-05-04 19:24 44.73669 -56.58499 32145 ft 568 kts 75°
2026-05-04 19:24 44.74686 -56.53132 32292 ft 568 kts 76°
2026-05-04 19:24 44.75701 -56.47759 32434 ft 568 kts 76°
2026-05-04 19:24 44.76712 -56.42393 32596 ft 568 kts 76°
2026-05-04 19:25 44.77721 -56.37024 32762 ft 567 kts 76°
2026-05-04 19:25 44.79730 -56.26284 32796 ft 566 kts 76°
2026-05-04 19:26 44.81721 -56.15583 32785 ft 566 kts 76°
2026-05-04 19:26 44.83679 -56.04807 32796 ft 570 kts 76°
2026-05-04 19:27 44.85637 -55.93991 32809 ft 568 kts 76°
2026-05-04 19:27 44.87599 -55.83223 32801 ft 566 kts 76°
2026-05-04 19:28 44.89556 -55.72468 32802 ft 566 kts 76°
2026-05-04 19:28 44.91498 -55.61732 32799 ft 566 kts 76°
2026-05-04 19:29 44.93108 -55.52775 32804 ft 567 kts 77°
2026-05-04 19:29 44.95348 -55.40237 32806 ft 566 kts 77°
2026-05-04 19:30 44.97262 -55.29451 32799 ft 566 kts 77°
2026-05-04 19:30 44.98858 -55.20411 32807 ft 566 kts 77°
2026-05-04 19:31 45.00754 -55.09609 32822 ft 566 kts 77°
2026-05-04 19:31 45.02632 -54.98819 32801 ft 564 kts 78°
2026-05-04 19:32 45.04450 -54.88099 32801 ft 567 kts 78°
2026-05-04 19:32 45.06300 -54.77220 32799 ft 569 kts 78°
2026-05-04 19:33 45.08159 -54.66356 32810 ft 568 kts 78°
2026-05-04 19:33 45.10009 -54.55510 32808 ft 565 kts 78°
2026-05-04 19:34 45.11840 -54.44700 32810 ft 565 kts 78°
2026-05-04 19:34 45.13660 -54.33871 32776 ft 565 kts 78°
2026-05-04 19:35 45.15477 -54.22993 32810 ft 569 kts 78°
2026-05-04 19:35 45.17291 -54.12067 32810 ft 569 kts 78°
2026-05-04 19:36 45.19094 -54.01138 32813 ft 569 kts 78°
2026-05-04 19:36 45.20886 -53.90211 32824 ft 569 kts 78°
2026-05-04 19:37 45.22646 -53.79257 32820 ft 569 kts 79°
2026-05-04 19:37 45.24367 -53.68383 32821 ft 569 kts 79°
2026-05-04 19:38 45.26119 -53.57405 32824 ft 571 kts 79°
2026-05-04 19:38 45.27875 -53.46421 32832 ft 571 kts 79°
2026-05-04 19:39 45.29622 -53.35422 32828 ft 571 kts 79°
2026-05-04 19:39 45.31355 -53.24428 32825 ft 569 kts 79°
2026-05-04 19:40 45.33070 -53.13467 32843 ft 568 kts 79°
2026-05-04 19:40 45.34775 -53.02493 32826 ft 571 kts 80°
2026-05-04 19:41 45.36485 -52.91413 32838 ft 575 kts 80°
2026-05-04 19:41 45.38184 -52.80336 32840 ft 572 kts 80°
2026-05-04 19:42 45.39862 -52.69304 32845 ft 569 kts 81°
2026-05-04 19:42 45.41486 -52.58274 32841 ft 570 kts 81°
2026-05-04 19:43 45.43118 -52.47240 32835 ft 570 kts 81°
2026-05-04 19:43 45.44757 -52.36220 32854 ft 573 kts 81°
2026-05-04 19:44 45.46403 -52.25124 32847 ft 571 kts 81°
2026-05-04 19:44 45.48021 -52.14136 32848 ft 571 kts 81°
2026-05-04 19:45 45.49639 -52.03070 32845 ft 571 kts 80°
2026-05-04 19:45 45.51878 -51.92169 32854 ft 574 kts 72°
2026-05-04 19:46 45.54695 -51.81555 32855 ft 571 kts 70°
2026-05-04 19:46 45.57543 -51.70983 32851 ft 571 kts 71°
2026-05-04 19:47 45.60313 -51.60338 32859 ft 571 kts 71°
2026-05-04 19:47 45.63034 -51.49683 32859 ft 570 kts 72°
2026-05-04 19:48 45.65732 -51.39059 32856 ft 568 kts 72°
2026-05-04 19:48 45.68425 -51.28430 32865 ft 568 kts 72°
2026-05-04 19:49 45.71109 -51.17791 32862 ft 568 kts 72°
2026-05-04 19:49 45.73777 -51.07173 32861 ft 566 kts 72°
2026-05-04 19:50 45.76427 -50.96575 32861 ft 565 kts 72°
2026-05-04 19:50 45.79060 -50.85931 32863 ft 569 kts 73°
2026-05-04 19:51 45.81674 -50.75200 32866 ft 571 kts 73°
2026-05-04 19:51 45.84300 -50.64486 32864 ft 568 kts 73°
2026-05-04 19:52 45.86920 -50.53807 32870 ft 568 kts 73°
2026-05-04 19:52 45.89538 -50.43094 32870 ft 568 kts 73°
2026-05-04 19:53 45.92122 -50.32468 32870 ft 566 kts 73°
2026-05-04 19:53 45.94703 -50.21792 32878 ft 566 kts 73°
2026-05-04 19:54 45.97287 -50.11105 32880 ft 566 kts 72°
2026-05-04 19:54 46.00509 -50.00728 32871 ft 572 kts 64°
2026-05-04 19:55 46.04249 -49.90595 32875 ft 574 kts 63°
2026-05-04 19:55 46.08006 -49.80474 32891 ft 573 kts 63°
2026-05-04 19:56 46.11685 -49.70290 32888 ft 573 kts 64°
2026-05-04 19:56 46.15320 -49.60090 32881 ft 570 kts 64°
2026-05-04 19:57 46.18935 -49.49902 32890 ft 570 kts 65°
2026-05-04 19:57 46.22546 -49.39704 32878 ft 570 kts 65°
2026-05-04 19:58 46.26144 -49.29510 32884 ft 569 kts 65°
2026-05-04 19:58 46.29714 -49.19358 32889 ft 568 kts 65°
2026-05-04 19:59 46.33283 -49.09165 32888 ft 568 kts 65°
2026-05-04 19:59 46.36828 -48.98953 32881 ft 567 kts 66°
2026-05-04 20:00 46.40331 -48.88749 32889 ft 565 kts 66°
2026-05-04 20:00 46.43820 -48.78625 32893 ft 565 kts 66°
2026-05-04 20:01 46.47343 -48.68407 32896 ft 569 kts 66°
2026-05-04 20:01 46.50891 -48.58087 32896 ft 571 kts 67°
2026-05-04 20:02 46.54416 -48.47792 32899 ft 568 kts 67°
2026-05-04 20:02 46.57927 -48.37489 32897 ft 569 kts 67°
2026-05-04 20:03 46.61429 -48.27174 32896 ft 570 kts 68°
2026-05-04 20:03 46.64929 -48.16818 32906 ft 571 kts 68°
2026-05-04 20:04 46.68400 -48.06515 32902 ft 570 kts 68°
2026-05-04 20:04 46.71884 -47.96129 32898 ft 570 kts 69°
2026-05-04 20:05 46.75319 -47.85730 32908 ft 569 kts 69°
2026-05-04 20:05 46.78748 -47.75330 32905 ft 569 kts 69°
2026-05-04 20:06 46.82192 -47.64921 32912 ft 569 kts 69°
2026-05-04 20:06 46.85629 -47.54519 32909 ft 568 kts 69°
2026-05-04 20:07 46.89050 -47.44121 32915 ft 568 kts 69°
2026-05-04 20:07 46.92461 -47.33703 32895 ft 569 kts 69°
2026-05-04 20:08 46.95879 -47.23217 32900 ft 570 kts 70°
2026-05-04 20:08 46.99264 -47.12809 32913 ft 563 kts 70°
2026-05-04 20:09 47.02592 -47.02519 32927 ft 564 kts 70°
2026-05-04 20:09 47.05939 -46.92121 32892 ft 563 kts 70°
2026-05-04 20:10 47.09251 -46.81759 32922 ft 558 kts 71°
2026-05-04 20:10 47.12511 -46.71418 32925 ft 559 kts 71°
2026-05-04 20:11 47.15787 -46.61065 32926 ft 559 kts 70°
2026-05-04 20:11 47.19070 -46.50707 32929 ft 559 kts 70°
2026-05-04 20:12 47.22343 -46.40349 32928 ft 559 kts 70°
2026-05-04 20:12 47.25607 -46.29970 32928 ft 559 kts 71°
2026-05-04 20:13 47.28859 -46.19584 32906 ft 557 kts 71°
2026-05-04 20:13 47.32068 -46.09305 32928 ft 550 kts 71°
2026-05-04 20:14 47.35252 -45.99045 32928 ft 551 kts 71°
2026-05-04 20:14 47.38428 -45.88769 32936 ft 551 kts 71°
2026-05-04 20:15 47.41570 -45.78571 32927 ft 546 kts 71°
2026-05-04 20:15 47.44667 -45.68404 32937 ft 541 kts 72°
2026-05-04 20:16 47.47732 -45.58230 32939 ft 542 kts 71°
2026-05-04 20:16 47.50814 -45.48054 32890 ft 542 kts 72°
2026-05-04 20:17 47.53886 -45.37926 32929 ft 537 kts 72°
2026-05-04 20:17 47.56934 -45.27834 32944 ft 537 kts 72°
2026-05-04 20:18 47.59461 -45.19427 32944 ft 536 kts 72°
2026-05-04 20:18 47.62978 -45.07682 32929 ft 535 kts 72°
2026-05-04 20:19 47.65978 -44.97623 32940 ft 532 kts 72°
2026-05-04 20:19 47.68962 -44.87571 32941 ft 532 kts 72°
2026-05-04 20:20 47.71453 -44.79144 32938 ft 532 kts 72°
2026-05-04 20:20 47.74419 -44.69081 32934 ft 530 kts 72°
2026-05-04 20:21 47.77355 -44.59043 32944 ft 529 kts 73°
2026-05-04 20:21 47.81694 -44.43974 32941 ft 529 kts 72°
2026-05-04 20:22 47.84587 -44.33982 32924 ft 528 kts 72°
2026-05-04 20:22 47.87511 -44.23881 32949 ft 528 kts 72°
2026-05-04 20:23 47.90407 -44.13834 32948 ft 528 kts 72°
2026-05-04 20:23 47.93293 -44.03774 32954 ft 527 kts 72°
2026-05-04 20:24 47.96148 -43.93781 32951 ft 527 kts 72°
2026-05-04 20:24 47.99008 -43.83726 32950 ft 526 kts 72°
2026-05-04 20:25 48.01863 -43.73649 32956 ft 526 kts 72°
2026-05-04 20:25 48.04704 -43.63578 32957 ft 526 kts 72°
2026-05-04 20:26 48.07538 -43.53489 32968 ft 527 kts 72°
2026-05-04 20:26 48.10348 -43.43381 32973 ft 526 kts 72°
2026-05-04 20:27 48.13124 -43.33256 32977 ft 526 kts 72°
2026-05-04 20:27 48.15917 -43.23125 32962 ft 526 kts 72°
2026-05-04 20:28 48.18697 -43.13056 32983 ft 527 kts 72°
2026-05-04 20:28 48.21483 -43.02935 32989 ft 527 kts 72°
2026-05-04 20:29 48.24265 -42.92782 32997 ft 527 kts 71°
2026-05-04 20:29 48.27039 -42.82608 33012 ft 527 kts 72°
2026-05-04 20:30 48.29803 -42.72424 33019 ft 527 kts 72°
2026-05-04 20:30 48.32558 -42.62233 33021 ft 527 kts 72°
2026-05-04 20:31 48.35305 -42.52025 33017 ft 526 kts 72°
2026-05-04 20:31 48.38040 -42.41820 33026 ft 526 kts 72°
2026-05-04 20:32 48.40758 -42.31617 33034 ft 525 kts 72°
2026-05-04 20:32 48.43430 -42.21387 33048 ft 525 kts 72°
2026-05-04 20:33 48.46110 -42.11148 33057 ft 525 kts 72°
2026-05-04 20:33 48.48799 -42.00916 33054 ft 524 kts 71°
2026-05-04 20:34 48.51470 -41.90737 33066 ft 522 kts 71°
2026-05-04 20:34 48.54129 -41.80550 33073 ft 522 kts 72°
2026-05-04 20:35 48.56778 -41.70353 33088 ft 522 kts 72°
2026-05-04 20:35 48.59399 -41.60222 33093 ft 521 kts 71°
2026-05-04 20:36 48.62024 -41.50028 33100 ft 520 kts 71°
2026-05-04 20:36 48.64636 -41.39833 33094 ft 520 kts 71°
2026-05-04 20:37 48.67241 -41.29627 33108 ft 520 kts 71°
2026-05-04 20:37 48.69835 -41.19417 33115 ft 520 kts 70°
2026-05-04 20:38 48.72401 -41.09160 33126 ft 520 kts 71°
2026-05-04 20:38 48.74943 -40.98901 33137 ft 520 kts 71°
2026-05-04 20:39 48.77498 -40.88653 33132 ft 520 kts 71°
2026-05-04 20:39 48.80043 -40.78452 33136 ft 521 kts 70°
2026-05-04 20:40 48.82602 -40.68155 33144 ft 521 kts 70°
2026-05-04 20:40 48.85150 -40.57853 33145 ft 521 kts 70°
2026-05-04 20:41 48.87689 -40.47529 33158 ft 521 kts 70°
2026-05-04 20:41 48.90217 -40.37205 33170 ft 522 kts 70°
2026-05-04 20:42 48.92741 -40.26851 33163 ft 522 kts 70°
2026-05-04 20:42 48.95254 -40.16493 33171 ft 522 kts 70°
2026-05-04 20:43 48.97757 -40.06127 33177 ft 522 kts 70°
2026-05-04 20:43 49.00240 -39.95771 33180 ft 522 kts 71°
2026-05-04 20:44 49.02529 -39.85270 33187 ft 522 kts 76°
2026-05-04 20:44 49.04161 -39.74505 33191 ft 522 kts 79°
2026-05-04 20:45 49.05619 -39.63665 33203 ft 522 kts 79°
2026-05-04 20:45 49.07110 -39.52845 33211 ft 522 kts 78°
2026-05-04 20:46 49.08632 -39.42028 33211 ft 522 kts 78°
2026-05-04 20:46 49.10153 -39.31203 33217 ft 522 kts 78°
2026-05-04 20:47 49.11661 -39.20377 33217 ft 521 kts 78°
2026-05-04 20:47 49.13157 -39.09535 33222 ft 522 kts 78°
2026-05-04 20:48 49.14644 -38.98686 33227 ft 522 kts 78°
2026-05-04 20:48 49.16120 -38.87834 33238 ft 522 kts 78°
2026-05-04 20:49 49.17576 -38.77044 33241 ft 522 kts 78°
2026-05-04 20:49 49.19032 -38.66176 33241 ft 522 kts 79°
2026-05-04 20:50 49.20438 -38.55303 33252 ft 522 kts 79°
2026-05-04 20:50 49.21839 -38.44408 33252 ft 522 kts 79°
2026-05-04 20:51 49.23256 -38.33527 33254 ft 522 kts 79°
2026-05-04 20:51 49.24670 -38.22644 33259 ft 522 kts 78°
2026-05-04 20:52 49.26078 -38.11737 33266 ft 523 kts 78°
2026-05-04 20:52 49.27477 -38.00799 33268 ft 523 kts 78°
2026-05-04 20:53 49.28865 -37.89858 33268 ft 523 kts 78°
2026-05-04 20:53 49.30240 -37.78927 33276 ft 523 kts 78°
2026-05-04 20:54 49.31609 -37.67958 33275 ft 526 kts 78°
2026-05-04 20:54 49.32975 -37.56930 33282 ft 527 kts 78°
2026-05-04 20:55 49.34322 -37.45956 33291 ft 527 kts 78°
2026-05-04 20:55 49.35650 -37.34900 33291 ft 527 kts 78°
2026-05-04 20:56 49.36939 -37.23830 33305 ft 528 kts 78°
2026-05-04 20:56 49.38253 -37.12708 33300 ft 530 kts 78°
2026-05-04 20:57 49.39573 -37.01582 33306 ft 530 kts 78°
2026-05-04 20:57 49.40884 -36.90462 33308 ft 530 kts 78°
2026-05-04 20:58 49.42183 -36.79324 33322 ft 529 kts 77°
2026-05-04 20:58 49.43461 -36.68262 33319 ft 527 kts 77°
2026-05-04 20:59 49.44732 -36.57168 33319 ft 527 kts 77°
2026-05-04 20:59 49.45992 -36.46078 33325 ft 527 kts 77°
2026-05-04 21:00 49.47242 -36.34981 33333 ft 527 kts 77°
2026-05-04 21:00 49.48469 -36.23972 33333 ft 524 kts 77°
2026-05-04 21:01 49.49683 -36.12945 33336 ft 523 kts 77°
2026-05-04 21:01 49.50847 -36.01900 33336 ft 523 kts 78°
2026-05-04 21:02 49.52018 -35.90842 33346 ft 523 kts 77°
2026-05-04 21:02 49.53203 -35.79781 33344 ft 523 kts 77°
2026-05-04 21:03 49.54381 -35.68742 33345 ft 523 kts 77°
2026-05-04 21:03 49.55549 -35.57686 33349 ft 523 kts 77°
2026-05-04 21:04 49.56705 -35.46627 33355 ft 523 kts 77°
2026-05-04 21:04 49.57850 -35.35556 33365 ft 524 kts 76°
2026-05-04 21:05 49.58990 -35.24445 33359 ft 525 kts 76°
2026-05-04 21:05 49.60118 -35.13328 33360 ft 525 kts 76°
2026-05-04 21:06 49.61236 -35.02194 33363 ft 525 kts 76°
2026-05-04 21:06 49.62344 -34.91059 33395 ft 525 kts 76°
2026-05-04 21:07 49.63236 -34.81779 33362 ft 527 kts 76°
2026-05-04 21:07 49.64454 -34.68778 33378 ft 527 kts 76°
2026-05-04 21:08 49.65521 -34.57590 33368 ft 527 kts 76°
2026-05-04 21:08 49.66410 -34.48291 33375 ft 527 kts 76°
2026-05-04 21:09 49.67477 -34.37022 33389 ft 526 kts 76°
2026-05-04 21:09 49.68524 -34.25843 33380 ft 526 kts 76°
2026-05-04 21:10 49.69561 -34.14654 33380 ft 526 kts 76°
2026-05-04 21:10 49.70579 -34.03534 33381 ft 526 kts 76°
2026-05-04 21:11 49.71594 -33.92331 33389 ft 527 kts 76°
2026-05-04 21:11 49.72598 -33.81122 33394 ft 527 kts 76°
2026-05-04 21:12 49.73591 -33.69910 33387 ft 527 kts 76°
2026-05-04 21:12 49.74567 -33.58685 33387 ft 527 kts 77°
2026-05-04 21:13 49.75492 -33.47437 33406 ft 527 kts 77°
2026-05-04 21:13 49.76425 -33.36218 33400 ft 528 kts 76°
2026-05-04 21:14 49.77373 -33.24967 33400 ft 527 kts 76°
2026-05-04 21:14 49.78314 -33.13728 33400 ft 527 kts 76°
2026-05-04 21:15 49.79244 -33.02487 33399 ft 527 kts 76°
2026-05-04 21:15 49.80164 -32.91216 33410 ft 528 kts 76°
2026-05-04 21:16 49.81071 -32.79945 33412 ft 528 kts 76°
2026-05-04 21:16 49.81968 -32.68671 33398 ft 528 kts 76°
2026-05-04 21:17 49.82854 -32.57389 33402 ft 528 kts 76°
2026-05-04 21:17 49.83724 -32.46170 33434 ft 529 kts 76°
2026-05-04 21:18 49.84592 -32.34837 33410 ft 530 kts 76°
2026-05-04 21:18 49.85411 -32.23468 33407 ft 531 kts 76°
2026-05-04 21:19 49.86219 -32.12107 33413 ft 530 kts 76°
2026-05-04 21:19 49.87044 -32.00766 33414 ft 530 kts 76°
2026-05-04 21:20 49.87871 -31.89408 33420 ft 530 kts 76°
2026-05-04 21:20 49.88686 -31.78037 33417 ft 531 kts 76°
2026-05-04 21:21 49.89489 -31.66657 33416 ft 531 kts 76°
2026-05-04 21:21 49.90280 -31.55269 33419 ft 531 kts 76°
2026-05-04 21:22 49.91061 -31.43883 33429 ft 531 kts 76°
2026-05-04 21:22 49.91829 -31.32491 33422 ft 531 kts 76°
2026-05-04 21:23 49.92587 -31.21090 33425 ft 531 kts 76°
2026-05-04 21:23 49.93334 -31.09685 33426 ft 531 kts 77°
2026-05-04 21:24 49.94044 -30.98288 33447 ft 531 kts 78°
2026-05-04 21:24 49.94720 -30.86914 33433 ft 528 kts 78°
2026-05-04 21:25 49.95416 -30.75562 33436 ft 528 kts 78°
2026-05-04 21:25 49.96116 -30.64201 33437 ft 529 kts 78°
2026-05-04 21:26 49.96806 -30.52837 33438 ft 528 kts 78°
2026-05-04 21:26 49.97481 -30.41505 33441 ft 526 kts 80°
2026-05-04 21:27 49.98137 -30.30285 33436 ft 525 kts 80°
2026-05-04 21:27 49.98787 -30.18984 33439 ft 525 kts 80°
2026-05-04 21:28 49.99427 -30.07680 33448 ft 525 kts 80°
2026-05-04 21:28 50.00054 -29.96405 33452 ft 523 kts 82°
2026-05-04 21:29 50.00663 -29.85208 33443 ft 517 kts 82°
2026-05-04 21:29 50.01218 -29.74041 33448 ft 519 kts 83°
2026-05-04 21:30 50.01645 -29.62826 33452 ft 520 kts 84°
2026-05-04 21:30 50.02066 -29.51611 33461 ft 519 kts 84°
2026-05-04 21:31 50.02709 -29.34889 33452 ft 514 kts 85°
2026-05-04 21:32 50.03130 -29.23783 33454 ft 515 kts 85°
2026-05-04 21:32 50.03540 -29.12659 33453 ft 515 kts 85°
2026-05-04 21:33 50.03938 -29.01545 33449 ft 515 kts 85°
2026-05-04 21:33 50.04322 -28.90494 33453 ft 515 kts 85°
2026-05-04 21:34 50.04698 -28.79387 33448 ft 513 kts 85°
2026-05-04 21:34 50.05063 -28.68291 33457 ft 514 kts 85°
2026-05-04 21:35 50.05418 -28.57193 33456 ft 514 kts 85°
2026-05-04 21:35 50.05749 -28.46099 33453 ft 511 kts 87°
2026-05-04 21:36 50.06031 -28.35070 33453 ft 510 kts 87°
2026-05-04 21:36 50.06330 -28.24036 33453 ft 510 kts 86°
2026-05-04 21:37 50.06638 -28.13001 33451 ft 510 kts 86°
2026-05-04 21:37 50.06940 -28.01972 33462 ft 510 kts 87°
2026-05-04 21:38 50.07230 -27.90952 33454 ft 508 kts 87°
2026-05-04 21:38 50.07507 -27.79956 33454 ft 508 kts 88°
2026-05-04 21:39 50.07774 -27.68958 33452 ft 509 kts 88°
2026-05-04 21:39 50.08031 -27.57955 33454 ft 509 kts 88°
2026-05-04 21:40 50.08278 -27.46961 33459 ft 508 kts 88°
2026-05-04 21:40 50.08513 -27.35983 33455 ft 507 kts 88°
2026-05-04 21:41 50.08739 -27.25005 33455 ft 507 kts 88°
2026-05-04 21:41 50.08928 -27.14025 33456 ft 507 kts 89°
2026-05-04 21:42 50.09087 -27.03110 33456 ft 507 kts 89°
2026-05-04 21:42 50.09265 -26.92138 33457 ft 506 kts 89°
2026-05-04 21:43 50.09449 -26.81187 33455 ft 506 kts 89°
2026-05-04 21:43 50.09623 -26.70262 33450 ft 506 kts 89°
2026-05-04 21:44 50.09786 -26.59313 33453 ft 506 kts 89°
2026-05-04 21:44 50.09938 -26.48376 33459 ft 506 kts 89°
2026-05-04 21:45 50.10080 -26.37431 33453 ft 505 kts 89°
2026-05-04 21:45 50.10212 -26.26478 33450 ft 505 kts 89°
2026-05-04 21:46 50.10333 -26.15526 33454 ft 505 kts 89°
2026-05-04 21:46 50.10444 -26.04577 33452 ft 505 kts 89°
2026-05-04 21:47 50.10545 -25.93636 33453 ft 506 kts 89°
2026-05-04 21:47 50.10600 -25.82678 33444 ft 506 kts 90°
2026-05-04 21:48 50.10640 -25.71737 33448 ft 506 kts 89°
2026-05-04 21:48 50.10699 -25.60779 33446 ft 505 kts 89°
2026-05-04 21:49 50.10759 -25.49833 33448 ft 505 kts 89°
2026-05-04 21:49 50.10810 -25.38889 33441 ft 505 kts 89°
2026-05-04 21:50 50.10849 -25.28020 33442 ft 505 kts 89°
2026-05-04 21:50 50.10877 -25.17086 33441 ft 505 kts 89°
2026-05-04 21:51 50.10895 -25.06141 33438 ft 505 kts 89°
2026-05-04 21:51 50.10903 -24.95211 33440 ft 505 kts 89°
2026-05-04 21:52 50.10900 -24.84289 33440 ft 504 kts 89°
2026-05-04 21:52 50.10888 -24.73364 33440 ft 504 kts 89°
2026-05-04 21:53 50.10864 -24.62440 33435 ft 504 kts 90°
2026-05-04 21:53 50.10787 -24.51520 33433 ft 504 kts 90°
2026-05-04 21:54 50.10709 -24.40587 33438 ft 503 kts 89°
2026-05-04 21:54 50.10648 -24.29676 33425 ft 504 kts 89°
2026-05-04 21:55 50.10596 -24.20609 33431 ft 504 kts 89°
2026-05-04 21:55 50.10526 -24.09704 33426 ft 504 kts 90°
2026-05-04 21:56 50.10443 -23.98789 33425 ft 504 kts 90°
2026-05-04 21:56 50.10350 -23.87886 33423 ft 504 kts 90°
2026-05-04 21:57 50.10247 -23.76977 33428 ft 504 kts 90°
2026-05-04 21:57 50.10133 -23.66060 33429 ft 504 kts 90°
2026-05-04 21:58 50.10009 -23.55157 33421 ft 504 kts 90°
2026-05-04 21:58 50.09875 -23.44290 33423 ft 502 kts 90°
2026-05-04 21:59 50.09732 -23.33492 33425 ft 501 kts 90°
2026-05-04 21:59 50.09538 -23.22632 33420 ft 502 kts 90°
2026-05-04 22:00 50.09338 -23.11776 33425 ft 502 kts 90°
2026-05-04 22:00 50.09155 -23.00906 33424 ft 502 kts 90°
2026-05-04 22:01 50.08972 -22.90054 33424 ft 501 kts 90°
2026-05-04 22:01 50.08779 -22.79229 33411 ft 500 kts 90°
2026-05-04 22:02 50.08576 -22.68414 33416 ft 500 kts 90°
2026-05-04 22:02 50.08363 -22.57598 33411 ft 500 kts 90°
2026-05-04 22:03 50.08138 -22.46770 33422 ft 500 kts 90°
2026-05-04 22:03 50.07904 -22.35968 33410 ft 498 kts 90°
2026-05-04 22:04 50.07661 -22.25204 33402 ft 498 kts 90°
2026-05-04 22:04 50.07410 -22.14503 33409 ft 498 kts 90°
2026-05-04 22:05 50.07147 -22.03747 33403 ft 498 kts 90°
2026-05-04 22:05 50.06831 -21.92984 33400 ft 497 kts 91°
2026-05-04 22:06 50.06514 -21.82241 33394 ft 496 kts 90°
2026-05-04 22:06 50.06214 -21.71517 33401 ft 496 kts 90°
2026-05-04 22:07 50.05914 -21.60781 33389 ft 496 kts 90°
2026-05-04 22:07 50.05603 -21.50045 33391 ft 496 kts 91°
2026-05-04 22:08 50.05282 -21.39324 33394 ft 496 kts 90°
2026-05-04 22:08 50.04950 -21.28605 33388 ft 496 kts 91°
2026-05-04 22:09 50.04609 -21.17880 33386 ft 496 kts 91°
2026-05-04 22:09 50.04258 -21.07167 33380 ft 496 kts 91°
2026-05-04 22:10 50.03897 -20.96459 33395 ft 496 kts 91°
2026-05-04 22:10 50.03526 -20.85767 33379 ft 495 kts 91°
2026-05-04 22:11 50.03146 -20.75076 33379 ft 495 kts 91°
2026-05-04 22:11 50.02716 -20.64393 33369 ft 495 kts 91°
2026-05-04 22:12 50.02280 -20.53720 33372 ft 495 kts 91°
2026-05-04 22:12 50.01864 -20.43106 33378 ft 494 kts 90°
2026-05-04 22:13 50.01447 -20.32462 33372 ft 492 kts 90°
2026-05-04 22:13 50.01023 -20.21875 33368 ft 492 kts 90°
2026-05-04 22:14 50.00588 -20.11264 33366 ft 492 kts 90°
2026-05-04 22:14 49.99934 -20.00669 33364 ft 495 kts 97°
2026-05-04 22:15 49.98293 -19.90245 33362 ft 497 kts 103°
2026-05-04 22:15 49.96371 -19.79920 33359 ft 498 kts 104°
2026-05-04 22:16 49.94489 -19.69579 33359 ft 498 kts 103°
2026-05-04 22:16 49.92652 -19.59229 33351 ft 497 kts 103°
2026-05-04 22:17 49.90820 -19.48875 33350 ft 497 kts 104°
2026-05-04 22:17 49.88978 -19.38531 33354 ft 498 kts 104°
2026-05-04 22:18 49.87124 -19.28201 33344 ft 498 kts 104°
2026-05-04 22:18 49.85257 -19.17860 33343 ft 498 kts 105°
2026-05-04 22:19 49.83383 -19.07540 33342 ft 498 kts 105°
2026-05-04 22:19 49.81500 -18.97224 33341 ft 498 kts 105°
2026-05-04 22:20 49.79618 -18.86971 33341 ft 498 kts 105°
2026-05-04 22:20 49.77710 -18.76677 33336 ft 498 kts 105°
2026-05-04 22:21 49.75755 -18.66406 33335 ft 498 kts 105°
2026-05-04 22:21 49.73809 -18.56123 33335 ft 498 kts 105°
2026-05-04 22:22 49.71873 -18.45833 33337 ft 498 kts 105°
2026-05-04 22:22 49.69934 -18.35550 33335 ft 498 kts 105°
2026-05-04 22:23 49.67986 -18.25283 33330 ft 498 kts 106°
2026-05-04 22:23 49.66031 -18.15040 33328 ft 498 kts 106°
2026-05-04 22:24 49.64065 -18.04796 33321 ft 497 kts 106°
2026-05-04 22:24 49.62090 -17.94557 33322 ft 498 kts 106°
2026-05-04 22:25 49.60106 -17.84330 33316 ft 497 kts 106°
2026-05-04 22:25 49.58112 -17.74109 33321 ft 498 kts 107°
2026-05-04 22:26 49.56112 -17.63908 33309 ft 498 kts 107°
2026-05-04 22:26 49.54094 -17.53705 33307 ft 497 kts 107°
2026-05-04 22:27 49.52032 -17.43540 33305 ft 498 kts 107°
2026-05-04 22:27 49.49996 -17.33452 33305 ft 496 kts 107°
2026-05-04 22:28 49.47958 -17.23294 33311 ft 497 kts 107°
2026-05-04 22:28 49.45924 -17.13178 33302 ft 496 kts 107°
2026-05-04 22:29 49.43872 -17.03033 33301 ft 497 kts 107°
2026-05-04 22:29 49.41813 -16.92904 33297 ft 498 kts 107°
2026-05-04 22:30 49.39741 -16.82771 33294 ft 496 kts 107°
2026-05-04 22:30 49.37663 -16.72656 33289 ft 497 kts 106°
2026-05-04 22:31 49.35578 -16.62566 33288 ft 495 kts 106°
2026-05-04 22:31 49.33490 -16.52503 33288 ft 495 kts 107°
2026-05-04 22:32 49.31392 -16.42451 33288 ft 496 kts 107°
2026-05-04 22:32 49.29291 -16.32454 33282 ft 495 kts 107°
2026-05-04 22:33 49.27118 -16.22366 33281 ft 496 kts 106°
2026-05-04 22:33 49.24987 -16.12432 33276 ft 492 kts 106°
2026-05-04 22:34 49.22867 -16.02492 33277 ft 491 kts 107°
2026-05-04 22:34 49.20745 -15.92559 33268 ft 491 kts 106°
2026-05-04 22:35 49.18612 -15.82623 33267 ft 492 kts 106°
2026-05-04 22:35 49.16468 -15.72698 33265 ft 492 kts 106°
2026-05-04 22:36 49.14317 -15.62787 33272 ft 492 kts 106°
2026-05-04 22:36 49.12160 -15.52899 33263 ft 489 kts 106°
2026-05-04 22:37 49.10008 -15.43075 33262 ft 488 kts 106°
2026-05-04 22:37 49.07848 -15.33259 33254 ft 488 kts 106°
2026-05-04 22:38 49.05678 -15.23449 33249 ft 488 kts 106°
2026-05-04 22:38 49.03502 -15.13658 33247 ft 488 kts 106°
2026-05-04 22:39 49.01275 -15.03878 33250 ft 488 kts 106°
2026-05-04 22:39 48.99792 -14.93885 33245 ft 481 kts 90°
2026-05-04 22:40 48.99879 -14.83770 33236 ft 476 kts 83°
2026-05-04 22:40 49.00191 -14.73756 33231 ft 477 kts 84°
2026-05-04 22:41 49.00351 -14.63654 33243 ft 477 kts 85°
2026-05-04 22:41 49.00417 -14.53580 33233 ft 475 kts 85°
2026-05-04 22:42 49.00458 -14.43523 33237 ft 475 kts 86°
2026-05-04 22:42 49.00494 -14.33451 33229 ft 475 kts 86°
2026-05-04 22:43 49.00525 -14.23388 33230 ft 475 kts 86°
2026-05-04 22:43 49.00544 -14.15051 33232 ft 474 kts 85°
2026-05-04 22:44 49.00557 -14.05061 33224 ft 471 kts 85°
2026-05-04 22:44 49.00565 -13.95081 33225 ft 472 kts 85°
2026-05-04 22:45 49.00564 -13.85085 33222 ft 472 kts 85°
2026-05-04 22:45 49.00537 -13.70098 33216 ft 472 kts 86°
2026-05-04 22:46 49.00467 -13.60102 33214 ft 472 kts 86°
2026-05-04 22:46 49.00410 -13.50104 33214 ft 472 kts 86°
2026-05-04 22:47 49.00365 -13.40108 33211 ft 472 kts 86°
2026-05-04 22:47 49.00316 -13.30114 33217 ft 472 kts 85°
2026-05-04 22:48 49.00258 -13.20110 33211 ft 473 kts 86°
2026-05-04 22:48 49.00192 -13.10156 33200 ft 473 kts 86°
2026-05-04 22:49 49.00353 -13.00196 33199 ft 465 kts 77°
2026-05-04 22:49 49.02053 -12.90850 33199 ft 456 kts 65°
2026-05-04 22:50 49.04301 -12.81789 33207 ft 458 kts 65°
2026-05-04 22:50 49.06461 -12.72674 33191 ft 456 kts 66°
2026-05-04 22:51 49.08522 -12.63518 33191 ft 457 kts 67°
2026-05-04 22:51 49.10553 -12.54326 33186 ft 457 kts 67°
2026-05-04 22:52 49.12573 -12.45134 33217 ft 457 kts 67°
2026-05-04 22:52 49.14582 -12.35958 33184 ft 453 kts 67°
2026-05-04 22:53 49.16570 -12.26848 33178 ft 452 kts 67°
2026-05-04 22:53 49.18553 -12.17727 33179 ft 453 kts 67°
2026-05-04 22:54 49.20530 -12.08593 33173 ft 453 kts 67°
2026-05-04 22:54 49.22499 -11.99448 33175 ft 451 kts 67°
2026-05-04 22:55 49.24429 -11.90438 33166 ft 447 kts 67°
2026-05-04 22:55 49.26362 -11.81385 33167 ft 448 kts 67°
2026-05-04 22:56 49.28258 -11.72285 33164 ft 449 kts 68°
2026-05-04 22:56 49.30152 -11.63180 33161 ft 449 kts 67°
2026-05-04 22:57 49.32052 -11.54111 33161 ft 444 kts 67°
2026-05-04 22:57 49.33935 -11.45121 33155 ft 443 kts 67°
2026-05-04 22:58 49.35820 -11.36103 33156 ft 444 kts 67°
2026-05-04 22:58 49.37690 -11.27111 33150 ft 444 kts 67°
2026-05-04 22:59 49.39557 -11.18082 33168 ft 443 kts 68°
2026-05-04 22:59 49.41398 -11.09128 33143 ft 437 kts 68°
2026-05-04 23:00 49.43211 -11.00289 33146 ft 438 kts 68°
2026-05-04 23:00 49.45033 -10.91366 33140 ft 437 kts 68°
2026-05-04 23:01 49.46851 -10.82427 33135 ft 441 kts 68°
2026-05-04 23:01 49.48692 -10.73327 33143 ft 441 kts 68°
2026-05-04 23:02 49.50479 -10.64431 33137 ft 436 kts 68°
2026-05-04 23:02 49.52258 -10.55490 33130 ft 438 kts 69°
2026-05-04 23:03 49.54006 -10.46506 33129 ft 438 kts 69°
2026-05-04 23:03 49.55780 -10.37471 33129 ft 438 kts 68°
2026-05-04 23:04 49.57545 -10.28519 33127 ft 435 kts 69°
2026-05-04 23:04 49.59294 -10.19625 33120 ft 433 kts 69°
2026-05-04 23:05 49.61027 -10.10783 33115 ft 434 kts 69°
2026-05-04 23:05 49.62765 -10.01871 33118 ft 434 kts 69°
2026-05-04 23:06 49.64498 -9.92941 33141 ft 434 kts 69°
2026-05-04 23:06 49.66228 -9.83983 33115 ft 436 kts 69°
2026-05-04 23:07 49.67954 -9.74997 33108 ft 437 kts 69°
2026-05-04 23:07 49.69674 -9.66005 33110 ft 436 kts 70°
2026-05-04 23:08 49.71386 -9.57010 33105 ft 437 kts 70°
2026-05-04 23:08 49.73091 -9.48007 33099 ft 437 kts 70°
2026-05-04 23:09 49.74791 -9.38993 33096 ft 437 kts 70°
2026-05-04 23:09 49.76457 -9.29959 33096 ft 437 kts 70°
2026-05-04 23:10 49.78107 -9.20914 33096 ft 437 kts 70°
2026-05-04 23:10 49.79774 -9.11873 33104 ft 437 kts 70°
2026-05-04 23:11 49.81452 -9.02798 33100 ft 442 kts 71°
2026-05-04 23:11 49.83146 -8.93595 33099 ft 445 kts 71°
2026-05-04 23:12 49.84833 -8.84376 33091 ft 444 kts 71°
2026-05-04 23:12 49.86512 -8.75154 33061 ft 444 kts 71°
2026-05-04 23:13 49.88170 -8.65993 33087 ft 438 kts 71°
2026-05-04 23:13 49.89806 -8.56921 33095 ft 441 kts 71°
2026-05-04 23:14 49.91460 -8.47716 33086 ft 443 kts 71°
2026-05-04 23:14 49.93105 -8.38494 33081 ft 443 kts 71°
2026-05-04 23:15 49.94725 -8.29374 33081 ft 443 kts 72°
2026-05-04 23:15 49.96355 -8.20148 33112 ft 443 kts 72°
2026-05-04 23:16 49.97991 -8.10816 33087 ft 451 kts 73°
2026-05-04 23:16 49.99594 -8.01383 33082 ft 451 kts 73°
2026-05-04 23:17 50.01204 -7.91965 33082 ft 451 kts 73°
2026-05-04 23:17 50.02786 -7.82529 33078 ft 451 kts 74°
2026-05-04 23:18 50.04192 -7.73005 33080 ft 453 kts 76°
2026-05-04 23:18 50.05563 -7.63397 33076 ft 455 kts 76°
2026-05-04 23:19 50.06936 -7.53785 33073 ft 455 kts 76°
2026-05-04 23:19 50.08309 -7.44162 33071 ft 455 kts 76°
2026-05-04 23:20 50.09676 -7.34538 33071 ft 455 kts 76°
2026-05-04 23:20 50.11039 -7.24886 33073 ft 458 kts 76°
2026-05-04 23:21 50.12401 -7.15174 33074 ft 459 kts 76°
2026-05-04 23:21 50.13754 -7.05460 33066 ft 459 kts 76°
2026-05-04 23:22 50.15092 -6.95790 33063 ft 459 kts 77°
2026-05-04 23:22 50.16430 -6.86054 33063 ft 459 kts 77°
2026-05-04 23:23 50.17765 -6.76283 33061 ft 461 kts 77°
2026-05-04 23:23 50.19092 -6.66498 33060 ft 461 kts 77°
2026-05-04 23:24 50.20402 -6.56697 33058 ft 461 kts 77°
2026-05-04 23:24 50.21668 -6.46882 33059 ft 461 kts 77°
2026-05-04 23:25 50.22951 -6.37054 33058 ft 465 kts 78°
2026-05-04 23:25 50.24255 -6.27142 33056 ft 466 kts 78°
2026-05-04 23:26 50.25555 -6.17228 33056 ft 466 kts 78°
2026-05-04 23:26 50.26831 -6.07424 33047 ft 463 kts 77°
2026-05-04 23:27 50.28102 -5.97586 33049 ft 462 kts 78°
2026-05-04 23:27 50.29373 -5.87685 33049 ft 466 kts 78°
2026-05-04 23:28 50.30639 -5.77743 33045 ft 466 kts 78°
2026-05-04 23:28 50.31894 -5.67824 33045 ft 466 kts 78°
2026-05-04 23:29 50.33142 -5.57877 33041 ft 466 kts 78°
2026-05-04 23:29 50.34382 -5.47926 33035 ft 467 kts 79°
2026-05-04 23:30 50.35618 -5.37930 33044 ft 468 kts 79°
2026-05-04 23:30 50.36825 -5.27969 33044 ft 467 kts 79°
2026-05-04 23:31 50.37799 -5.19646 33047 ft 468 kts 79°
2026-05-04 23:31 50.38987 -5.09631 33048 ft 467 kts 79°
2026-05-04 23:32 50.40186 -4.99619 33046 ft 467 kts 79°
2026-05-04 23:32 50.41380 -4.89617 33047 ft 467 kts 79°
2026-05-04 23:33 50.42566 -4.79597 33046 ft 467 kts 79°
2026-05-04 23:33 50.43742 -4.69581 33041 ft 467 kts 79°
2026-05-04 23:34 50.44909 -4.59563 33029 ft 467 kts 80°
2026-05-04 23:34 50.46069 -4.49525 33032 ft 467 kts 80°
2026-05-04 23:35 50.47220 -4.39485 33032 ft 467 kts 80°
2026-05-04 23:35 50.48355 -4.29509 33032 ft 467 kts 80°
2026-05-04 23:36 50.49488 -4.19465 33025 ft 467 kts 81°
2026-05-04 23:36 50.50613 -4.09407 33027 ft 468 kts 81°
2026-05-04 23:37 50.51715 -3.99313 33025 ft 468 kts 81°
2026-05-04 23:37 50.52799 -3.89221 33023 ft 468 kts 81°
2026-05-04 23:38 50.53915 -3.79138 33023 ft 468 kts 81°
2026-05-04 23:38 50.55040 -3.69050 33020 ft 468 kts 81°
2026-05-04 23:39 50.56162 -3.58932 32650 ft 470 kts 81°
2026-05-04 23:39 50.56717 -3.53903 32252 ft 462 kts 82°
2026-05-04 23:39 50.57262 -3.48940 31855 ft 460 kts 82°
2026-05-04 23:40 50.57816 -3.43965 31470 ft 462 kts 82°
2026-05-04 23:40 50.58385 -3.38981 31093 ft 464 kts 82°
2026-05-04 23:40 50.58965 -3.33984 30723 ft 465 kts 82°
2026-05-04 23:40 50.59551 -3.28966 30337 ft 467 kts 82°
2026-05-04 23:41 50.60139 -3.23934 30080 ft 467 kts 83°
2026-05-04 23:41 50.60724 -3.18909 30027 ft 468 kts 82°
2026-05-04 23:41 50.61891 -3.08823 30021 ft 469 kts 82°
2026-05-04 23:42 50.63038 -2.98781 30020 ft 469 kts 83°
2026-05-04 23:42 50.64166 -2.88676 30020 ft 469 kts 83°
2026-05-04 23:43 50.65294 -2.78568 30000 ft 469 kts 83°
2026-05-04 23:43 50.66419 -2.68457 30023 ft 471 kts 83°
2026-05-04 23:44 50.67543 -2.58295 30022 ft 471 kts 83°
2026-05-04 23:44 50.68247 -2.48077 29865 ft 468 kts 94°
2026-05-04 23:45 50.68135 -2.42973 29665 ft 465 kts 97°
2026-05-04 23:45 50.67895 -2.37887 29424 ft 465 kts 98°
2026-05-04 23:45 50.67626 -2.32812 29230 ft 465 kts 96°
2026-05-04 23:45 50.67719 -2.27699 29237 ft 470 kts 86°
2026-05-04 23:46 50.68922 -2.17480 29236 ft 476 kts 82°
2026-05-04 23:46 50.70158 -2.07234 29235 ft 475 kts 84°
2026-05-04 23:47 50.71164 -1.96959 29233 ft 474 kts 85°
2026-05-04 23:47 50.72071 -1.86664 29221 ft 474 kts 85°
2026-05-04 23:48 50.72961 -1.76324 28887 ft 481 kts 85°
2026-05-04 23:48 50.73409 -1.71101 28259 ft 479 kts 85°
2026-05-04 23:48 50.73857 -1.65896 27659 ft 478 kts 85°
2026-05-04 23:49 50.74302 -1.60692 27069 ft 479 kts 85°
2026-05-04 23:49 50.74747 -1.55470 26488 ft 480 kts 85°
2026-05-04 23:49 50.75190 -1.50251 25906 ft 478 kts 85°
2026-05-04 23:49 50.75628 -1.45062 25327 ft 474 kts 85°
2026-05-04 23:50 50.76059 -1.39922 24749 ft 470 kts 84°
2026-05-04 23:50 50.76485 -1.34819 24187 ft 467 kts 84°
2026-05-04 23:50 50.76905 -1.29739 23625 ft 464 kts 84°
2026-05-04 23:50 50.77320 -1.24700 22982 ft 460 kts 84°
2026-05-04 23:51 50.77729 -1.19711 22396 ft 455 kts 84°
2026-05-04 23:51 50.78131 -1.14781 21835 ft 450 kts 84°
2026-05-04 23:51 50.78527 -1.09897 21286 ft 445 kts 84°
2026-05-04 23:51 50.78911 -1.05070 20747 ft 440 kts 84°
2026-05-04 23:52 50.79271 -1.00296 20278 ft 434 kts 84°
2026-05-04 23:52 50.79623 -0.95579 19904 ft 430 kts 84°
2026-05-04 23:52 50.79973 -0.90957 19537 ft 428 kts 84°
2026-05-04 23:52 50.80334 -0.86302 19195 ft 425 kts 82°
2026-05-04 23:53 50.80915 -0.81746 19075 ft 424 kts 73°
2026-05-04 23:53 50.82121 -0.77501 19028 ft 424 kts 58°
2026-05-04 23:53 50.84014 -0.74042 19021 ft 427 kts 41°
2026-05-04 23:53 50.86512 -0.71491 19022 ft 429 kts 27°
2026-05-04 23:54 50.89265 -0.69648 19024 ft 431 kts 21°
2026-05-04 23:54 50.92096 -0.68043 19026 ft 433 kts 20°
2026-05-04 23:54 50.94934 -0.66451 19026 ft 433 kts 21°
2026-05-04 23:54 50.97757 -0.64801 19029 ft 433 kts 22°
2026-05-04 23:55 51.00571 -0.63077 19027 ft 432 kts 22°
2026-05-04 23:55 51.03360 -0.61313 19025 ft 432 kts 23°
2026-05-04 23:55 51.08929 -0.57702 19026 ft 432 kts 23°
2026-05-04 23:56 51.11712 -0.55881 19027 ft 432 kts 23°
2026-05-04 23:56 51.14490 -0.54060 19026 ft 432 kts 23°
2026-05-04 23:56 51.17269 -0.52237 19024 ft 432 kts 23°
2026-05-04 23:56 51.20050 -0.50411 19024 ft 432 kts 24°
2026-05-04 23:57 51.22829 -0.48584 19025 ft 432 kts 23°
2026-05-04 23:57 51.25606 -0.46758 19025 ft 432 kts 23°
2026-05-04 23:57 51.28389 -0.44926 19025 ft 432 kts 24°
2026-05-04 23:57 51.31168 -0.43093 19026 ft 432 kts 23°
2026-05-04 23:58 51.33945 -0.41260 19014 ft 431 kts 23°
2026-05-04 23:58 51.36700 -0.39438 18043 ft 428 kts 23°
2026-05-04 23:58 51.39414 -0.37641 17180 ft 418 kts 23°
2026-05-04 23:58 51.42103 -0.35859 16796 ft 421 kts 24°
2026-05-04 23:59 51.44780 -0.34050 16394 ft 417 kts 24°
2026-05-04 23:59 51.47412 -0.32125 16097 ft 410 kts 26°
2026-05-04 23:59 51.49902 -0.30226 16023 ft 383 kts 26°
2026-05-04 23:59 51.52215 -0.28438 16015 ft 356 kts 27°
2026-05-05 00:00 51.54376 -0.26765 15968 ft 334 kts 27°
2026-05-05 00:00 51.55076 -0.26223 15924 ft 328 kts 27°
2026-05-05 00:00 51.58392 -0.23657 15280 ft 314 kts 27°
2026-05-05 00:00 51.60358 -0.22136 14760 ft 312 kts 27°
2026-05-05 00:01 51.62311 -0.20626 14239 ft 310 kts 26°
2026-05-05 00:01 51.64247 -0.19131 13703 ft 308 kts 26°
2026-05-05 00:01 51.66169 -0.17646 13132 ft 305 kts 26°
2026-05-05 00:01 51.68075 -0.16172 12579 ft 303 kts 26°
2026-05-05 00:02 51.69966 -0.14710 12039 ft 300 kts 26°
2026-05-05 00:02 51.71845 -0.13256 11509 ft 298 kts 25°
2026-05-05 00:02 51.73709 -0.11812 11004 ft 296 kts 25°
2026-05-05 00:02 51.75572 -0.10420 10490 ft 294 kts 24°
2026-05-05 00:03 51.77377 -0.09133 10347 ft 276 kts 23°
2026-05-05 00:03 51.79078 -0.07932 10049 ft 262 kts 22°
2026-05-05 00:03 51.80742 -0.06763 9480 ft 259 kts 22°
2026-05-05 00:03 51.82379 -0.05612 9060 ft 255 kts 22°
2026-05-05 00:04 51.84007 -0.04468 8672 ft 256 kts 22°
2026-05-05 00:04 51.85636 -0.03323 8289 ft 255 kts 22°
2026-05-05 00:04 51.87250 -0.02188 8078 ft 247 kts 22°
2026-05-05 00:04 51.88823 -0.01079 8053 ft 249 kts 22°
2026-05-05 00:05 51.90412 0.00039 8048 ft 249 kts 22°
2026-05-05 00:05 51.92004 0.01162 8048 ft 249 kts 22°
2026-05-05 00:05 51.93592 0.02282 8047 ft 249 kts 22°
2026-05-05 00:05 51.95180 0.03402 8047 ft 249 kts 22°
2026-05-05 00:06 51.96760 0.04519 7673 ft 248 kts 21°
2026-05-05 00:06 51.98334 0.05630 7314 ft 246 kts 21°
2026-05-05 00:06 51.99859 0.06849 6948 ft 244 kts 28°
2026-05-05 00:06 52.01305 0.08288 6592 ft 244 kts 30°
2026-05-05 00:07 52.02733 0.09758 6219 ft 242 kts 30°
2026-05-05 00:07 52.04132 0.11202 6060 ft 233 kts 30°
2026-05-05 00:07 52.05526 0.12636 6058 ft 240 kts 30°
2026-05-05 00:07 52.06811 0.14333 6020 ft 242 kts 51°
2026-05-05 00:08 52.07470 0.16823 6042 ft 244 kts 82°
2026-05-05 00:08 52.07283 0.19548 6047 ft 246 kts 112°
2026-05-05 00:08 52.06299 0.21781 6053 ft 246 kts 142°
2026-05-05 00:08 52.04772 0.22945 6051 ft 244 kts 172°
2026-05-05 00:09 52.03130 0.22752 6055 ft 241 kts 201°
2026-05-05 00:09 52.01603 0.21622 6062 ft 242 kts 210°
2026-05-05 00:09 52.00118 0.20340 6048 ft 242 kts 210°
2026-05-05 00:09 51.98631 0.19048 6048 ft 242 kts 210°
2026-05-05 00:10 51.97193 0.17651 6055 ft 238 kts 218°
2026-05-05 00:10 51.95929 0.16108 6020 ft 216 kts 220°
2026-05-05 00:10 51.94780 0.14666 6050 ft 208 kts 220°
2026-05-05 00:10 51.93655 0.13256 6047 ft 206 kts 220°
2026-05-05 00:11 51.92525 0.11840 5949 ft 202 kts 220°
2026-05-05 00:11 51.91403 0.10432 5397 ft 204 kts 220°
2026-05-05 00:11 51.90284 0.09017 4896 ft 204 kts 220°
2026-05-05 00:11 51.89174 0.07604 4396 ft 202 kts 220°
2026-05-05 00:12 51.88076 0.06195 3916 ft 200 kts 220°
2026-05-05 00:12 51.86993 0.04798 3439 ft 198 kts 220°
2026-05-05 00:12 51.85929 0.03420 3028 ft 195 kts 220°
2026-05-05 00:12 51.84866 0.02031 2654 ft 197 kts 220°
2026-05-05 00:13 51.83800 0.00632 2274 ft 197 kts 220°
2026-05-05 00:13 51.82737 -0.00744 2003 ft 194 kts 212°
2026-05-05 00:13 51.81459 -0.01322 1976 ft 194 kts 174°
2026-05-05 00:13 51.80226 -0.00519 2016 ft 193 kts 137°
2026-05-05 00:14 51.79288 0.01025 2046 ft 194 kts 130°
2026-05-05 00:14 51.78489 0.02747 1961 ft 190 kts 108°
2026-05-05 00:14 51.78411 0.04789 2005 ft 185 kts 78°
2026-05-05 00:14 51.78713 0.06839 2024 ft 189 kts 75°
2026-05-05 00:15 51.79039 0.08883 2010 ft 186 kts 70°
2026-05-05 00:15 51.79750 0.10492 1932 ft 170 kts 39°
2026-05-05 00:15 51.80654 0.11680 1954 ft 166 kts 42°
2026-05-05 00:15 51.81517 0.12966 2018 ft 171 kts 42°
2026-05-05 00:16 51.82392 0.14281 1888 ft 171 kts 42°
2026-05-05 00:16 51.83244 0.15560 1596 ft 165 kts 43°
2026-05-05 00:16 51.84080 0.16825 1382 ft 170 kts 43°
2026-05-05 00:16 51.84920 0.18099 1139 ft 163 kts 43°
2026-05-05 00:17 51.85480 0.18938 1011 ft 160 kts 43°
2026-05-05 00:17 51.86299 0.20161 755 ft 168 kts 43°
2026-05-05 00:17 51.87114 0.21392 526 ft 160 kts 44°
2026-05-05 00:17 51.87879 0.22548 352 ft 149 kts 44°
2026-05-05 00:18 51.88503 0.23484 358 ft 94 kts 42°
2026-05-05 00:18 51.88843 0.23993 356 ft 49 kts 43°
2026-05-05 00:18 51.89041 0.24328 367 ft 31 kts 56°
2026-05-05 00:18 51.89123 0.24619 366 ft 26 kts 68°
2026-05-05 00:19 51.89167 0.24820 359 ft 9 kts 82°
2026-05-05 00:19 51.89155 0.24866 358 ft 3 kts 137°
2026-05-05 00:19 51.89091 0.24846 360 ft 15 kts 213°
2026-05-05 00:19 51.89014 0.24738 360 ft 15 kts 223°
2026-05-05 00:20 51.88940 0.24629 367 ft 14 kts 223°
2026-05-05 00:20 51.88868 0.24587 365 ft 9 kts 156°
2026-05-05 00:20 51.88820 0.24648 367 ft 8 kts 149°
2026-05-05 00:20 51.88769 0.24651 359 ft 8 kts 197°
2026-05-05 00:21 51.88721 0.24591 356 ft 11 kts 227°
2026-05-05 00:21 51.88663 0.24509 364 ft 11 kts 221°
2026-05-05 00:21 51.88604 0.24423 354 ft 12 kts 222°
2026-05-05 00:21 51.88533 0.24396 357 ft 10 kts 157°
2026-05-05 00:22 51.88482 0.24418 356 ft 6 kts 185°
2026-05-05 00:22 51.88448 0.24388 363 ft 5 kts 218°
2026-05-05 00:22 51.88425 0.24357 362 ft 1 kts 221°
2026-05-05 00:22 51.88425 0.24356 354 ft 0 kts 221°